Погода в Купросе

Россия / Пермский край     58°59′27″N   55°31′09″E
темп.,
°C
ветер,
м/с
пор.,
м/с
влажн.,
%
обл.,
%
осадки,
мм/ч
давл.,
гПа
погр.,
м
22 октября, пт
пт2223:000ю51395100 4.8 994796
02:000ююз41195100 1.4 993500
05:00+2юз31097100 1.6 994381
08:00+4юз31099100 0.0 994335
11:00+5ююз41198100 0.0 994378
14:00+5ю41298100 2.8 992395
17:00+6юз51398100 4.3 991858
20:00+7юз61395100 0.0 991963
23 октября, сб
сб2323:00+8юз51493100 0.1 992811
02:00+8зюз51282100 0.1 9931035
05:00+7юз51384100 0.4 9941235
08:00+6зюз71476100 0.1 9971403
11:00+5зюз51181100 0.2 999990
14:00+7зюз512739 0.3 10011406
17:00+5зюз5117774 0.6 10031020
20:00+4юз4128686 0.0 1005692
24 октября, вс
вс2423:00+3ююз31190100 0.0 1006417
02:00+4юз31091100 0.0 1006537
05:00+3ююз279370 0.1 1006251
08:00+2ю269688 0.0 1006181
11:00+4ю258887 0.1 1005266
14:00+4ююз3795100 0.8 1004569
17:00+3зюз2790100 0.9 1005493
20:00+3зюз3697100 0.1 1006501
25 октября, пн
пн2523:00+2зюз3797100 0.3 1007423
02:00+2з3797100 0.3 1008609
05:00+2зюз3797100 0.6 1009386
08:00+2юз3797100 0.4 1009450
11:00+2юз3996100 0.8 1009632
14:000ссз4890100 1.4 1011697
17:00−1сз4992100 2.0 1012783
20:00−1сз51193100 0.4 1015885
26 октября, вт
вт2623:00−2сз51082100 0.4 1016830
02:00−3сз598082 0.1 1018908
05:00−3зсз4108344 0.1 1020701
08:00−3сз4880100 0.1 1020811
11:00−2зсз3677100 0.1 1021902
14:00−1з356185 0.0 10201117
17:00−1юз2571100 0.0 1019455
20:00−2ююз2795100 0.1 1018439